Location: Goettingen
(51.5300°N, 9.9433°E)
Time: 06:57:15
(UTC+01:00)

ISS - Pass Details

Date: 05 December 2019
Orbit: 411 x 421 km, 51.6° (Epoch: 15 December)

Event Time Altitude Azimuth Distance (km) Brightness Sun altitude
Rises 19:12:07 0° 284° (WNW) 2,363 1.2 -26.8°
Reaches altitude 10° 19:14:21 10° 273° (W) 1,499 0.0 -27.1°
Enters shadow 19:15:59 22° 252° (WSW) 967 -1.3 -27.4°
